SCP
0 0 0 0 0 0 0 0 0 0 0 0 0 0 0 0 0 0 0 0 0 0 0 0 0 0 0 0 0 0 0 0 0 0 0 0 0 0 0 0 0 0 0
0 0 0 0 0 0 0 0 0 0 0 0 0 0 0 0 0 0 0 0 0 0 0 0 0 0 0 0 0 0 0 0 0 0 0 0 0 0 0 0 0 0 0
0 0 0 0 0 0 0 0 0 0 0 0 0 0 0 0 0 0 0 0 0 0 0 0 0 0 0 0 0 0 0 0 0 0 0 0 0 0 0 0 0 0 0
0 0 0 0 0 0 0 0 0 0 0 0 0 0 0 0 0 0 0 0 0 0 0 0 0 0 0 0 0 0 0 0 0 0 0 0 0 0 0 0 0 0 0
0 0 0 0 0 0 0 0 0 0 0 0 0 0 0 0 0 0 0 0 0 0 0 0 0 0 0 0 0 0 0 0 0 0 0 0 0 0 0 0 0 0 0
0 0 0 0 0 0 0 0 0 0 0 0 0 0 0 0 0 0 0 0 0 0 0 0 0 0 0 0 0 0 0 0 0 0 0 0 0 0 0 0 0 0 0
0 0 0 0 0 0 0 0 0 0 0 0 0 0 0 0 0 0 0 0 0 0 0 0 0 0 0 0 0 0 0 0 0 0 0 0 0 0 0 0 0 0 0
0 0 0 0 0 0 0 0 0 0 0 0 0 0 0 0 0 0 0 0 0 0 0 0 0 0 0 0 0 0 0 0 0 0 0 0 0 0 0 0 0 0 0
0 0 0 0 0 0 0 0 0 0 0 0 0 0 0 0 0 0 0 0 0 0 0 0 0 0 0 0 0 0 0 0 0 0 0 0 0 0 0 0 0 0 0
0 0 0 0 0 0 0 0 0 0 0 0 0 0 0 0 0 0 0 0 0 0 0 0 0 0 0 0 0 0 0 0 0 0 0 0 0 0 0 0 0 0 0
0 0 0 0 0 0 0 0 0 0 0 0 0 0 0 0 0 0 0 0 0 0 0 0 0 0 0 0 0 0 0 0 0 0 0 0 0 0 0 0 0 0 0
0 0 0 0 0 0 0 0 0 0 0 0 0 0 0 0 0 0 0 0 0 0 0 0 0 0 0 0 0 0 0 0 0 0 0 0 0 0 0 0 0 0 0
0 0 0 0 0 0 0 0 0 0 0 0 0 0 0 0 0 0 0 0 0 0 0 0 0 0 0 0 0 0 0 0 0 0 0 0 0 0 0 0 0 0 0
-0 0 0 0 0 0 0 0 0 0 0 0 0 0 0 0 0 0 0 0 0 0 0 0 0 0 0 0 0 0 0 0 0 0 0 0 0 0 0 0 0 0 0
-0 -0 0 0 0 0 0 0 0 0 0 0 0 0 0 0 0 0 0 0 0 0 0 0 0 0 0 0 0 0 0 0 0 0 0 0 0 0 0 0 0 0 0
0 0 0 0 0 0 0 0 0 0 0 0 0 0 0 0 0 0 0 0 0 0 0 0 0 0 0 0 0 0 0 0 0 0 0 0 0 0 0 0 0 0 0
0 0 0 0 0 0 0 0 0 0 0 0 0 0 0 0 0 0 0 0 0 0 0 0 0 0 0 0 0 0 0 0 0 0 0 0 0 0 0 0 0 0 0
0 0 0 0 0 0 0 0 0 0 0 0 0 0 0 0 0 0 0 0 0 0 0 0 0 0 0 0 0 0 0 0 0 0 0 0 0 0 0 0 0 0 0
0 0 0 0 0 0 0 0 0 0 0 0 0 0 0 0 0 0 0 0 0 0 0 0 0 0 0 0 0 0 0 0 0 0 0 0 0 0 0 0 0 0 0
0 0 0 0 -0 -0 0 0 0 0 0 0 0 0 0 0 0 0 0 0 0 0 0 0 0 0 0 0 0 0 0 0 0 0 0 0 0 0 0 0 0 0 0
0 0 0 -0 -0 -0 -0 0 0 0 0 0 0 0 0 0 0 0 0 0 0 0 0 0 0 0 0 0 0 0 0 0 0 0 0 0 0 0 0 0 0 0 0
-0 -0 0 -0 -0 -0 -0 -0 0 0 0 0 0 0 0 0 0 0 0 0 0 0 0 0 0 0 0 0 0 0 0 0 0 0 0 0 0 0 0 0 0 0 0
-0 -0 0 0 -0 -0 -0 -0 0 0 0 0 0 0 0 0 0 0 0 0 0 0 0 0 0 0 0 0 0 0 0 0 0 0 0 0 0 0 0 0 0 0 0
0 0 0 0 0 0 0 0 0 0 0 0 0 0 0 0 0 0 0 0 0 0 0 0 0 0 0 0 0 0 0 0 0 0 0 0 0 0 0 0 0 0 0
0 0 0 0 0 0 0 0 0 0 0 0 0 0 0 0 0 0 0 0 0 0 0 0 0 0 0 0 0 0 0 0 0 0 0 0 0 0 0 0 0 0 0
0 0 0 0 0 0 0 0 0 0 0 0 0 0 0 0 0 0 0 0 0 0 0 0 0 0 0 0 0 0 0 0 0 0 0 0 0 0 0 0 0 0 0
Wind_Speed
2 2 2 2 3 2 3 3 4 5 5 5 5 6 5 5 5 5 5 12 13 13 13 13 13 13 12 12 12 12 12 12 11 11 11 11 11 11 11 10 10 10 8
2 2 2 2 2 2 3 3 4 4 4 4 5 5 5 5 5 5 5 7 13 13 13 13 13 13 12 13 13 13 12 12 11 11 11 12 12 12 12 11 11 11 11
3 2 2 2 2 2 3 4 4 4 4 5 5 5 4 5 5 5 5 5 6 11 14 14 14 13 13 13 13 13 13 12 11 11 12 13 13 13 13 12 12 12 12
3 3 3 2 2 2 3 3 3 4 4 4 4 4 4 4 5 5 5 5 5 5 9 14 14 14 13 14 14 14 14 13 12 12 13 13 13 13 13 12 12 12 12
3 3 2 2 2 3 3 3 3 3 4 4 4 4 4 4 4 5 5 5 5 5 5 9 13 14 14 14 15 15 15 15 14 14 14 14 14 14 14 14 13 12 13
3 3 3 3 3 3 3 3 4 4 3 3 5 5 4 4 4 4 4 4 5 6 6 6 6 8 14 15 15 15 16 17 17 16 16 15 15 15 16 15 14 14 14
3 3 3 3 3 3 3 4 4 4 3 2 3 3 4 4 4 4 4 4 5 5 5 6 5 5 6 12 14 16 16 16 17 17 17 17 17 17 17 17 16 16 16
2 3 4 3 3 3 4 3 3 3 2 2 2 2 2 3 4 4 4 4 5 4 5 6 6 6 5 5 9 15 15 15 16 17 17 17 17 17 17 18 18 17 17
2 3 4 3 3 3 3 2 3 3 2 1 1 3 2 1 1 3 4 4 4 4 4 4 6 6 6 5 6 10 14 15 16 16 17 17 17 18 18 18 18 17 17
2 2 3 4 3 3 3 2 2 2 3 1 1 2 2 3 2 1 3 3 4 4 5 5 5 5 6 5 7 12 14 14 15 16 16 17 18 18 18 17 18 18 17
2 2 3 3 3 2 2 2 2 2 2 2 2 1 2 2 2 3 1 2 3 3 3 4 4 4 5 5 5 9 12 12 13 15 15 16 17 17 18 17 17 17 17
1 2 2 3 3 2 2 2 2 3 2 2 2 2 2 2 2 2 2 0 1 2 3 3 4 4 4 4 6 10 11 11 12 13 14 15 15 16 16 17 17 17 17
1 1 2 2 2 2 2 2 2 2 2 2 2 1 1 2 2 3 3 2 1 2 3 3 3 3 3 3 4 8 9 10 11 12 13 13 14 14 15 15 16 16 16
2 2 2 2 2 3 3 2 2 2 2 2 2 2 2 1 2 3 3 4 2 2 3 3 2 3 3 3 4 6 5 9 9 10 11 12 13 13 14 14 14 14 15
2 2 3 3 2 3 3 3 2 2 2 2 2 2 2 1 2 1 2 3 4 2 1 2 2 3 3 2 4 4 4 7 8 9 10 11 12 12 13 13 14 14 14
2 3 3 3 3 3 3 3 2 2 3 2 2 3 3 2 2 2 2 2 2 3 2 1 1 2 3 3 5 4 4 8 9 9 10 10 11 11 12 12 13 13 13
3 3 3 3 3 3 3 3 3 3 3 3 2 3 3 2 2 2 2 2 2 3 3 0 1 2 3 4 4 4 4 4 5 9 10 10 11 11 12 12 12 12 13
3 3 4 4 3 3 3 3 3 3 3 3 2 3 2 3 3 2 2 2 2 2 3 2 2 2 2 2 3 4 4 4 4 8 10 10 10 11 11 11 11 12 12
3 3 4 4 3 3 3 3 3 3 3 2 2 3 3 3 3 2 3 2 2 3 3 3 1 1 2 2 2 3 4 3 4 6 8 9 10 10 10 11 11 11 11
4 3 3 3 3 3 3 3 4 3 3 2 2 2 3 3 3 3 3 3 3 4 4 3 2 1 1 2 2 2 3 3 3 4 5 6 8 10 10 10 10 10 10
4 4 4 3 3 3 3 4 4 4 3 3 2 2 3 4 5 4 3 3 4 3 3 3 2 2 2 1 1 1 1 2 2 3 3 4 4 4 5 7 8 9 9
3 4 3 4 3 2 5 7 5 4 4 3 2 2 2 3 4 5 6 6 6 5 3 3 1 1 1 1 1 1 1 2 2 3 2 3 3 3 3 3 7 8 9
4 4 4 4 3 3 6 7 7 5 4 3 3 2 2 3 3 3 5 6 5 5 5 4 3 2 1 1 1 1 1 1 0 2 1 2 3 2 2 4 8 8 8
4 4 4 4 4 4 7 7 8 5 4 2 2 3 3 2 3 5 5 4 3 3 2 2 2 1 1 1 2 2 2 1 0 2 2 1 2 2 2 2 7 8 9
4 3 3 4 4 4 7 8 8 4 3 2 2 2 3 3 5 7 6 4 3 2 4 5 5 4 4 4 4 3 2 2 1 2 2 1 2 2 2 2 4 8 9
4 4 3 3 4 4 6 8 9 4 4 2 2 2 3 4 5 7 5 5 3 1 2 3 4 5 4 4 5 2 2 2 1 1 1 1 1 2 3 2 2 3 4
Wind_Direction
76 71 60 53 54 55 65 70 70 67 68 68 68 68 58 49 40 35 26 40 44 44 45 47 45 43 41 38 37 34 31 29 27 24 24 23 26 26 25 25 26 23 21
103 92 76 62 59 65 71 78 80 76 69 68 64 61 56 48 40 38 33 32 39 41 42 42 42 43 43 40 37 34 31 28 26 26 28 28 29 30 31 30 30 30 30
114 103 90 78 74 77 81 80 77 73 72 67 58 54 51 47 43 38 34 31 27 34 36 39 40 40 40 38 35 33 30 27 29 32 34 32 32 34 35 36 36 36 36
123 109 100 89 89 88 89 89 81 77 70 68 60 48 45 44 42 40 37 33 30 25 24 33 36 36 36 35 35 33 30 27 33 40 41 38 36 36 35 37 39 42 43
111 111 108 103 95 92 89 97 81 87 85 78 75 57 46 45 36 40 35 32 31 29 21 23 29 31 32 33 33 33 33 34 41 46 47 44 40 38 37 39 42 45 50
110 113 109 105 103 101 88 89 92 77 83 84 78 62 45 44 42 36 30 29 31 31 27 26 21 20 27 29 30 33 36 37 42 45 47 47 43 42 40 42 45 50 54
118 117 113 105 104 108 113 113 103 90 75 80 81 55 33 40 45 34 28 32 29 24 27 28 24 19 15 22 25 33 36 39 42 45 46 47 45 44 44 45 50 54 55
122 131 122 119 116 110 108 111 113 105 79 60 101 89 39 14 16 26 27 36 27 20 24 27 26 23 17 13 17 33 36 40 45 48 48 47 47 45 45 47 49 53 55
98 113 127 128 127 123 129 131 131 126 127 57 79 129 131 164 342 2 23 28 23 24 14 16 27 22 18 15 12 26 36 38 44 48 49 48 48 47 47 48 50 52 53
91 109 125 129 130 125 132 145 131 125 129 128 67 62 111 144 131 37 359 9 21 28 18 20 18 16 16 17 23 33 38 38 43 46 47 47 47 47 48 48 48 50 51
74 102 116 120 124 126 136 130 121 119 124 140 141 125 93 74 92 124 71 350 4 8 12 15 16 13 12 16 18 33 38 37 41 43 45 45 46 46 47 48 48 48 49
60 90 113 119 127 129 139 140 130 125 124 123 127 133 141 140 145 130 134 93 359 339 356 5 15 9 9 13 22 31 37 39 41 42 43 43 44 46 46 46 46 46 47
96 144 127 128 132 140 140 132 121 118 123 123 130 129 128 139 142 135 129 129 67 336 349 357 1 4 12 12 13 25 35 39 40 42 42 43 44 45 46 46 45 44 45
179 166 140 138 135 136 133 123 111 106 103 108 109 118 115 120 132 139 143 137 102 15 9 345 345 0 1 3 8 23 30 38 41 43 43 43 43 44 44 44 44 43 43
161 148 140 133 128 125 123 119 106 100 101 91 98 104 99 92 106 118 128 138 138 125 351 327 339 345 353 9 16 27 29 37 43 45 46 44 44 45 44 43 43 42 41
140 135 127 124 118 115 117 115 107 103 98 84 93 95 86 87 88 88 105 104 116 136 139 297 304 325 350 24 36 35 36 41 44 48 49 49 50 49 48 47 45 43 41
141 138 139 132 127 125 122 117 114 112 102 85 84 100 94 95 91 80 85 91 91 110 123 5 345 353 17 22 13 22 37 39 38 48 54 55 53 52 51 49 47 44 43
143 140 135 130 130 127 125 127 127 119 114 109 107 107 103 102 89 82 87 88 91 101 124 116 18 7 15 10 10 24 31 41 39 45 53 54 52 53 52 49 47 46 43
139 131 130 136 139 137 133 133 131 127 120 119 128 130 128 117 106 96 94 92 86 85 89 108 63 11 2 10 14 20 33 26 34 38 46 49 51 53 52 49 47 46 43
143 141 142 148 147 139 135 135 129 122 114 107 117 127 131 136 139 130 114 108 103 92 86 89 74 32 11 356 34 25 19 22 26 24 29 41 45 46 45 45 46 45 42
152 150 144 143 142 142 152 149 142 136 130 115 98 105 119 130 134 135 128 130 120 108 99 92 78 48 18 10 2 349 21 9 27 21 12 23 27 32 32 34 39 42 40
145 143 150 148 146 155 156 156 146 137 135 132 126 109 103 110 116 118 120 124 129 128 131 119 106 105 295 280 324 46 43 36 2 359 20 9 26 26 18 29 34 38 37
149 149 154 149 154 162 155 150 144 132 132 135 138 129 114 109 109 108 103 100 95 104 128 138 136 178 201 223 153 91 89 101 142 325 18 360 1 12 7 25 34 35 32
154 158 158 158 156 164 156 147 141 128 121 128 140 142 132 125 124 126 110 93 78 68 100 115 138 168 166 164 159 157 155 126 38 9 36 13 340 336 352 0 26 33 30
152 156 154 156 158 169 161 154 141 127 121 122 123 131 141 138 138 133 119 112 89 59 68 85 88 77 72 85 109 97 81 77 17 340 12 40 323 321 325 338 8 22 23
155 150 146 158 165 172 166 159 148 136 133 128 102 105 133 141 138 136 133 132 129 129 92 72 59 50 52 64 83 99 131 121 110 320 335 20 338 355 335 324 346 3 8